Time,TemperatureF,DewpointF,PressureIn,WindDirection,WindDirectionDegrees,WindSpeedMPH,WindSpeedGustMPH,Humidity,HourlyPrecipIn,Conditions,Clouds,dailyrainin,SolarRadiationWatts/m^2,SoftwareType,DateUTC
2013-09-30 00:00:00,53.9,51.9,30.09,ENE,74,0.0,0.0,93,0.00,,,0.00,0,Wunderground v.1.15,2013-09-30 04:00:00,
2013-09-30 00:05:00,54.2,51.9,30.09,ENE,74,0.0,0.0,92,0.00,,,0.00,0,Wunderground v.1.15,2013-09-30 04:05:00,
2013-09-30 00:10:00,54.4,52.1,30.09,ENE,74,0.0,0.0,92,0.00,,,0.00,0,Wunderground v.1.15,2013-09-30 04:10:00,
2013-09-30 00:15:00,54.6,52.6,30.09,ENE,74,0.0,0.0,93,0.00,,,0.00,0,Wunderground v.1.15,2013-09-30 04:15:00,
2013-09-30 00:20:00,54.7,52.7,30.08,ENE,74,0.0,0.0,93,0.00,,,0.00,0,Wunderground v.1.15,2013-09-30 04:20:00,
2013-09-30 00:30:00,55.0,52.7,30.08,ENE,74,0.0,0.0,92,0.00,,,0.00,0,Wunderground v.1.15,2013-09-30 04:30:00,
2013-09-30 00:40:00,55.3,53.3,30.08,ENE,74,0.0,0.0,93,0.00,,,0.00,0,Wunderground v.1.15,2013-09-30 04:40:00,
2013-09-30 00:50:00,55.3,53.0,30.08,ENE,74,0.0,0.0,92,0.00,,,0.00,0,Wunderground v.1.15,2013-09-30 04:50:00,
2013-09-30 01:00:00,55.4,53.1,30.08,ENE,74,0.0,0.0,92,0.00,,,0.00,0,Wunderground v.1.15,2013-09-30 05:00:00,
2013-09-30 01:05:00,55.6,53.3,30.08,ENE,74,0.0,1.0,92,0.00,,,0.00,0,Wunderground v.1.15,2013-09-30 05:05:00,
2013-09-30 01:10:00,56.0,54.0,30.08,ENE,74,0.0,0.0,93,0.00,,,0.00,0,Wunderground v.1.15,2013-09-30 05:10:00,
2013-09-30 01:20:00,56.8,54.8,30.08,ENE,74,0.0,0.0,93,0.00,,,0.00,0,Wunderground v.1.15,2013-09-30 05:20:00,
2013-09-30 01:25:00,57.2,55.2,30.08,ENE,74,0.0,0.0,93,0.00,,,0.00,0,Wunderground v.1.15,2013-09-30 05:25:00,
2013-09-30 01:30:00,57.5,55.5,30.08,ENE,74,0.0,0.0,93,0.00,,,0.00,0,Wunderground v.1.15,2013-09-30 05:30:00,
2013-09-30 01:40:00,58.0,56.0,30.08,East,84,0.0,0.0,93,0.00,,,0.00,0,Wunderground v.1.15,2013-09-30 05:40:00,
2013-09-30 01:49:00,58.5,56.5,30.08,ENE,77,0.0,1.0,93,0.00,,,0.00,0,Wunderground v.1.15,2013-09-30 05:49:00,
2013-09-30 01:55:00,58.7,56.4,30.08,ENE,61,0.0,1.0,92,0.00,,,0.00,0,Wunderground v.1.15,2013-09-30 05:55:00,
2013-09-30 02:05:00,59.1,56.8,30.08,East,86,0.0,1.0,92,0.00,,,0.00,0,Wunderground v.1.15,2013-09-30 06:05:00,
2013-09-30 02:10:00,59.4,57.1,30.08,ENE,74,1.0,2.0,92,0.00,,,0.00,0,Wunderground v.1.15,2013-09-30 06:10:00,
2013-09-30 02:15:00,59.5,57.2,30.08,East,84,2.0,2.0,92,0.00,,,0.00,0,Wunderground v.1.15,2013-09-30 06:15:00,
2013-09-30 02:25:00,59.7,57.4,30.07,ENE,73,1.0,1.0,92,0.00,,,0.00,0,Wunderground v.1.15,2013-09-30 06:25:00,
2013-09-30 02:35:00,59.7,57.1,30.07,East,82,1.0,1.0,91,0.00,,,0.00,0,Wunderground v.1.15,2013-09-30 06:35:00,
2013-09-30 02:45:00,59.7,57.1,30.07,ENE,72,1.0,1.0,91,0.00,,,0.00,0,Wunderground v.1.15,2013-09-30 06:45:00,
2013-09-30 02:50:00,59.7,57.1,30.06,NE,50,1.0,1.0,91,0.00,,,0.00,0,Wunderground v.1.15,2013-09-30 06:50:00,
2013-09-30 03:00:00,59.6,57.0,30.06,East,86,1.0,1.0,91,0.00,,,0.00,0,Wunderground v.1.15,2013-09-30 07:00:00,
2013-09-30 03:10:00,59.6,57.0,30.06,ENE,61,0.0,0.0,91,0.00,,,0.00,0,Wunderground v.1.15,2013-09-30 07:10:00,
2013-09-30 03:15:00,59.6,57.0,30.06,East,81,0.0,0.0,91,0.00,,,0.00,0,Wunderground v.1.15,2013-09-30 07:15:00,
2013-09-30 03:20:00,59.6,57.0,30.06,East,82,0.0,0.0,91,0.00,,,0.00,0,Wunderground v.1.15,2013-09-30 07:20:00,
2013-09-30 03:30:00,59.7,57.1,30.06,ENE,68,0.0,0.0,91,0.00,,,0.00,0,Wunderground v.1.15,2013-09-30 07:30:00,
2013-09-30 03:35:00,59.7,57.1,30.06,ENE,76,1.0,1.0,91,0.00,,,0.00,0,Wunderground v.1.15,2013-09-30 07:35:00,
2013-09-30 03:45:00,59.8,57.2,30.06,East,92,1.0,1.0,91,0.00,,,0.00,0,Wunderground v.1.15,2013-09-30 07:45:00,
2013-09-30 03:55:00,59.9,57.3,30.06,ENE,57,1.0,3.0,91,0.00,,,0.00,0,Wunderground v.1.15,2013-09-30 07:55:00,
2013-09-30 04:05:00,60.0,57.4,30.07,East,90,1.0,5.0,91,0.00,,,0.00,0,Wunderground v.1.15,2013-09-30 08:05:00,
2013-09-30 04:10:00,60.1,57.5,30.07,East,80,1.0,2.0,91,0.00,,,0.00,0,Wunderground v.1.15,2013-09-30 08:10:00,
2013-09-30 04:20:00,60.1,57.5,30.06,ENE,78,1.0,2.0,91,0.00,,,0.00,0,Wunderground v.1.15,2013-09-30 08:20:00,
2013-09-30 04:25:00,60.1,57.5,30.06,East,83,1.0,2.0,91,0.00,,,0.00,0,Wunderground v.1.15,2013-09-30 08:25:00,
2013-09-30 04:35:00,60.0,57.4,30.06,ENE,75,1.0,2.0,91,0.00,,,0.00,0,Wunderground v.1.15,2013-09-30 08:35:00,
2013-09-30 04:45:00,60.0,57.4,30.06,East,98,1.0,7.0,91,0.00,,,0.00,0,Wunderground v.1.15,2013-09-30 08:45:00,
2013-09-30 04:55:00,60.0,57.4,30.06,East,100,2.0,2.0,91,0.00,,,0.00,0,Wunderground v.1.15,2013-09-30 08:55:00,
2013-09-30 05:00:00,60.0,57.4,30.06,East,80,2.0,2.0,91,0.00,,,0.00,0,Wunderground v.1.15,2013-09-30 09:00:00,
2013-09-30 05:10:00,59.9,57.3,30.06,ENE,63,1.0,1.0,91,0.00,,,0.00,0,Wunderground v.1.15,2013-09-30 09:10:00,
2013-09-30 05:20:00,59.9,57.3,30.07,East,85,1.0,1.0,91,0.00,,,0.00,0,Wunderground v.1.15,2013-09-30 09:20:00,
2013-09-30 05:25:00,59.9,57.3,30.07,East,82,1.0,1.0,91,0.00,,,0.00,0,Wunderground v.1.15,2013-09-30 09:25:00,
2013-09-30 05:35:00,59.8,57.2,30.07,East,79,1.0,2.0,91,0.00,,,0.00,0,Wunderground v.1.15,2013-09-30 09:35:00,
2013-09-30 05:40:00,59.8,57.2,30.07,ENE,78,1.0,1.0,91,0.00,,,0.00,0,Wunderground v.1.15,2013-09-30 09:40:00,
2013-09-30 05:45:00,59.8,57.2,30.07,ENE,78,0.0,1.0,91,0.00,,,0.00,0,Wunderground v.1.15,2013-09-30 09:45:00,
2013-09-30 05:55:00,59.7,57.1,30.07,ENE,78,1.0,1.0,91,0.00,,,0.00,0,Wunderground v.1.15,2013-09-30 09:55:00,
2013-09-30 06:05:00,59.6,57.0,30.06,East,81,1.0,1.0,91,0.00,,,0.00,0,Wunderground v.1.15,2013-09-30 10:05:00,
2013-09-30 06:10:00,59.5,56.9,30.06,East,81,0.0,0.0,91,0.00,,,0.00,0,Wunderground v.1.15,2013-09-30 10:10:00,
2013-09-30 06:20:00,59.3,56.7,30.06,East,82,0.0,0.0,91,0.00,,,0.00,0,Wunderground v.1.15,2013-09-30 10:20:00,
2013-09-30 06:25:00,59.2,56.6,30.06,NE,55,0.0,1.0,91,0.00,,,0.00,0,Wunderground v.1.15,2013-09-30 10:25:00,
2013-09-30 06:35:00,59.0,56.4,30.06,ENE,78,1.0,3.0,91,0.00,,,0.00,0,Wunderground v.1.15,2013-09-30 10:35:00,
2013-09-30 06:40:00,58.9,56.6,30.07,ENE,77,1.0,1.0,92,0.00,,,0.00,0,Wunderground v.1.15,2013-09-30 10:40:00,
2013-09-30 06:50:00,58.7,56.4,30.07,ENE,68,1.0,1.0,92,0.00,,,0.00,0,Wunderground v.1.15,2013-09-30 10:50:00,
2013-09-30 06:55:00,58.7,56.4,30.07,ENE,69,0.0,1.0,92,0.00,,,0.00,0,Wunderground v.1.15,2013-09-30 10:55:00,
2013-09-30 07:00:00,58.6,56.3,30.06,NNW,341,0.0,0.0,92,0.00,,,0.00,7,Wunderground v.1.15,2013-09-30 11:00:00,
2013-09-30 07:05:00,58.6,56.3,30.06,NNW,342,0.0,0.0,92,0.00,,,0.00,7,Wunderground v.1.15,2013-09-30 11:05:00,
2013-09-30 07:15:00,58.5,56.2,30.06,NNW,342,0.0,0.0,92,0.00,,,0.00,14,Wunderground v.1.15,2013-09-30 11:15:00,
2013-09-30 07:25:00,58.4,56.1,30.06,NNW,346,0.0,0.0,92,0.00,,,0.00,21,Wunderground v.1.15,2013-09-30 11:25:00,
2013-09-30 07:30:00,58.5,56.2,30.06,NNW,346,0.0,0.0,92,0.00,,,0.00,40,Wunderground v.1.15,2013-09-30 11:30:00,
2013-09-30 07:40:00,58.7,56.4,30.07,ENE,73,0.0,1.0,92,0.00,,,0.00,42,Wunderground v.1.15,2013-09-30 11:40:00,
2013-09-30 07:50:00,59.0,56.7,30.07,ENE,73,1.0,1.0,92,0.00,,,0.00,33,Wunderground v.1.15,2013-09-30 11:50:00,
2013-09-30 08:00:00,59.4,57.1,30.07,ENE,63,2.0,2.0,92,0.00,,,0.00,37,Wunderground v.1.15,2013-09-30 12:00:00,
2013-09-30 08:05:00,59.7,57.4,30.07,East,92,2.0,2.0,92,0.00,,,0.00,47,Wunderground v.1.15,2013-09-30 12:05:00,
2013-09-30 08:15:00,60.0,57.4,30.07,ENE,66,1.0,2.0,91,0.00,,,0.00,51,Wunderground v.1.15,2013-09-30 12:15:00,
2013-09-30 08:25:00,60.1,57.2,30.07,ENE,78,1.0,3.0,90,0.00,,,0.00,69,Wunderground v.1.15,2013-09-30 12:25:00,
2013-09-30 08:35:00,60.2,56.9,30.07,ENE,75,1.0,3.0,89,0.00,,,0.00,46,Wunderground v.1.15,2013-09-30 12:35:00,
2013-09-30 08:40:00,60.2,56.9,30.07,East,86,1.0,1.0,89,0.00,,,0.00,42,Wunderground v.1.15,2013-09-30 12:40:00,
2013-09-30 08:45:00,60.2,56.9,30.07,East,84,1.0,2.0,89,0.00,,,0.00,67,Wunderground v.1.15,2013-09-30 12:45:00,
2013-09-30 08:55:00,60.4,57.1,30.07,ENE,64,1.0,4.0,89,0.00,,,0.00,72,Wunderground v.1.15,2013-09-30 12:55:00,
2013-09-30 09:05:00,60.3,57.0,30.08,ENE,71,2.0,5.0,89,0.00,,,0.00,56,Wunderground v.1.15,2013-09-30 13:05:00,
2013-09-30 09:10:00,60.2,56.9,30.07,ESE,103,2.0,3.0,89,0.00,,,0.00,51,Wunderground v.1.15,2013-09-30 13:10:00,
2013-09-30 09:20:00,59.9,56.3,30.07,ENE,74,3.0,3.0,88,0.00,,,0.00,137,Wunderground v.1.15,2013-09-30 13:20:00,
2013-09-30 09:30:00,60.2,56.6,30.07,East,84,2.0,2.0,88,0.00,,,0.00,135,Wunderground v.1.15,2013-09-30 13:30:00,
2013-09-30 09:35:00,60.5,56.9,30.07,ENE,76,2.0,5.0,88,0.00,,,0.00,79,Wunderground v.1.15,2013-09-30 13:35:00,
2013-09-30 09:40:00,60.5,56.6,30.07,East,90,2.0,2.0,87,0.00,,,0.00,91,Wunderground v.1.15,2013-09-30 13:40:00,
2013-09-30 09:50:00,60.6,56.7,30.08,East,93,2.0,3.0,87,0.00,,,0.00,83,Wunderground v.1.15,2013-09-30 13:50:00,
2013-09-30 10:00:00,60.7,56.8,30.08,ENE,76,1.0,1.0,87,0.00,,,0.00,67,Wunderground v.1.15,2013-09-30 14:00:00,
2013-09-30 10:05:00,60.7,56.8,30.08,East,79,1.0,1.0,87,0.00,,,0.00,79,Wunderground v.1.15,2013-09-30 14:05:00,
2013-09-30 10:10:00,60.7,56.8,30.08,East,84,1.0,1.0,87,0.00,,,0.00,95,Wunderground v.1.15,2013-09-30 14:10:00,
2013-09-30 10:15:00,60.8,56.9,30.07,East,80,1.0,2.0,87,0.00,,,0.00,109,Wunderground v.1.15,2013-09-30 14:15:00,
2013-09-30 10:25:00,61.0,57.1,30.07,East,80,0.0,1.0,87,0.00,,,0.00,104,Wunderground v.1.15,2013-09-30 14:25:00,
2013-09-30 10:30:00,61.2,57.3,30.07,East,88,1.0,1.0,87,0.00,,,0.00,118,Wunderground v.1.15,2013-09-30 14:30:00,
2013-09-30 10:40:00,61.4,57.2,30.07,East,88,0.0,0.0,86,0.00,,,0.00,130,Wunderground v.1.15,2013-09-30 14:40:00,
2013-09-30 10:45:00,61.6,57.4,30.06,North,9,0.0,0.0,86,0.00,,,0.00,118,Wunderground v.1.15,2013-09-30 14:45:00,
2013-09-30 10:50:00,61.8,57.6,30.06,NW,321,0.0,0.0,86,0.00,,,0.00,176,Wunderground v.1.15,2013-09-30 14:50:00,
2013-09-30 10:55:00,62.1,57.5,30.06,ENE,72,1.0,1.0,85,0.00,,,0.00,244,Wunderground v.1.15,2013-09-30 14:55:00,
2013-09-30 11:00:00,62.5,58.3,30.06,NNW,336,1.0,1.0,86,0.00,,,0.00,371,Wunderground v.1.15,2013-09-30 15:00:00,
2013-09-30 11:10:00,63.1,57.9,30.05,NE,41,2.0,2.0,83,0.00,,,0.00,253,Wunderground v.1.15,2013-09-30 15:10:00,
2013-09-30 11:20:00,64.0,58.4,30.05,NE,48,1.0,1.0,82,0.00,,,0.00,258,Wunderground v.1.15,2013-09-30 15:20:00,
2013-09-30 11:25:00,64.1,58.1,30.05,WNW,297,1.0,1.0,81,0.00,,,0.00,155,Wunderground v.1.15,2013-09-30 15:25:00,
2013-09-30 11:30:00,64.0,57.7,30.05,ENE,69,1.0,3.0,80,0.00,,,0.00,246,Wunderground v.1.15,2013-09-30 15:30:00,
2013-09-30 11:40:00,63.7,57.8,30.05,NE,34,2.0,2.0,81,0.00,,,0.00,722,Wunderground v.1.15,2013-09-30 15:40:00,
2013-09-30 11:50:00,64.3,56.9,30.05,ENE,57,2.0,2.0,77,0.00,,,0.00,729,Wunderground v.1.15,2013-09-30 15:50:00,
2013-09-30 12:00:00,64.9,57.5,30.05,ENE,76,2.0,2.0,77,0.00,,,0.00,717,Wunderground v.1.15,2013-09-30 16:00:00,
2013-09-30 12:05:00,65.5,56.6,30.04,East,83,2.0,3.0,73,0.00,,,0.00,735,Wunderground v.1.15,2013-09-30 16:05:00,
2013-09-30 12:15:00,66.3,56.6,30.04,ENE,72,2.0,2.0,71,0.00,,,0.00,745,Wunderground v.1.15,2013-09-30 16:15:00,
2013-09-30 12:20:00,66.5,55.2,30.04,East,87,2.0,2.0,67,0.00,,,0.00,752,Wunderground v.1.15,2013-09-30 16:20:00,
2013-09-30 12:30:00,67.7,57.6,30.04,East,98,1.0,2.0,70,0.00,,,0.00,759,Wunderground v.1.15,2013-09-30 16:30:00,
2013-09-30 12:35:00,67.7,55.5,30.04,ENE,75,1.0,2.0,65,0.00,,,0.00,759,Wunderground v.1.15,2013-09-30 16:35:00,
2013-09-30 12:45:00,68.7,56.5,30.04,NW,304,1.0,1.0,65,0.00,,,0.00,765,Wunderground v.1.15,2013-09-30 16:45:00,
2013-09-30 12:50:00,69.2,56.9,30.04,East,85,1.0,1.0,65,0.00,,,0.00,763,Wunderground v.1.15,2013-09-30 16:50:00,
2013-09-30 13:00:00,69.2,56.9,30.03,ENE,78,1.0,1.0,65,0.00,,,0.00,759,Wunderground v.1.15,2013-09-30 17:00:00,
2013-09-30 13:10:00,68.9,55.8,30.03,East,81,2.0,7.0,63,0.00,,,0.00,770,Wunderground v.1.15,2013-09-30 17:10:00,
2013-09-30 13:15:00,68.5,56.3,30.03,ENE,64,2.0,7.0,65,0.00,,,0.00,772,Wunderground v.1.15,2013-09-30 17:15:00,
2013-09-30 13:25:00,69.3,56.2,30.02,ENE,69,1.0,1.0,63,0.00,,,0.00,279,Wunderground v.1.15,2013-09-30 17:25:00,
2013-09-30 13:35:00,69.3,57.5,30.02,North,5,0.0,1.0,66,0.00,,,0.00,257,Wunderground v.1.15,2013-09-30 17:35:00,
2013-09-30 13:40:00,69.0,57.2,30.02,ENE,69,0.0,0.0,66,0.00,,,0.00,255,Wunderground v.1.15,2013-09-30 17:40:00,
2013-09-30 13:45:00,68.5,56.7,30.02,ENE,78,1.0,1.0,66,0.00,,,0.00,554,Wunderground v.1.15,2013-09-30 17:45:00,
2013-09-30 13:55:00,69.0,57.2,30.02,ENE,66,1.0,1.0,66,0.00,,,0.00,308,Wunderground v.1.15,2013-09-30 17:55:00,
2013-09-30 14:05:00,68.6,57.2,30.02,North,5,1.0,1.0,67,0.00,,,0.00,742,Wunderground v.1.15,2013-09-30 18:05:00,
2013-09-30 14:10:00,69.4,57.5,30.02,NW,311,1.0,1.0,66,0.00,,,0.00,728,Wunderground v.1.15,2013-09-30 18:10:00,
2013-09-30 14:20:00,70.2,57.0,30.02,ENE,73,1.0,1.0,63,0.00,,,0.00,705,Wunderground v.1.15,2013-09-30 18:20:00,
2013-09-30 14:30:00,71.0,58.6,30.01,South,173,1.0,2.0,65,0.00,,,0.00,802,Wunderground v.1.15,2013-09-30 18:30:00,
2013-09-30 14:40:00,70.3,58.4,30.01,East,98,1.0,1.0,66,0.00,,,0.00,114,Wunderground v.1.15,2013-09-30 18:40:00,
2013-09-30 14:50:00,70.0,58.5,30.01,SSW,207,1.0,1.0,67,0.00,,,0.00,121,Wunderground v.1.15,2013-09-30 18:50:00,
2013-09-30 15:00:00,69.1,58.5,30.01,SW,225,1.0,1.0,69,0.00,,,0.00,188,Wunderground v.1.15,2013-09-30 19:00:00,
2013-09-30 15:10:00,68.5,58.7,30.01,SSW,198,1.0,1.0,71,0.00,,,0.00,612,Wunderground v.1.15,2013-09-30 19:10:00,
2013-09-30 15:20:00,68.9,58.7,30.00,SSW,196,1.0,1.0,70,0.00,,,0.00,74,Wunderground v.1.15,2013-09-30 19:20:00,
2013-09-30 15:30:00,69.1,58.9,30.00,South,187,1.0,1.0,70,0.00,,,0.00,573,Wunderground v.1.15,2013-09-30 19:30:00,
2013-09-30 15:35:00,69.1,59.3,30.00,SSW,192,1.0,1.0,71,0.00,,,0.00,561,Wunderground v.1.15,2013-09-30 19:35:00,
2013-09-30 15:45:00,69.5,59.7,30.00,SSE,165,1.0,1.0,71,0.00,,,0.00,526,Wunderground v.1.15,2013-09-30 19:45:00,
2013-09-30 15:50:00,69.5,59.3,30.00,South,175,1.0,1.0,70,0.00,,,0.00,81,Wunderground v.1.15,2013-09-30 19:50:00,
2013-09-30 16:00:00,69.0,59.2,29.99,SSW,196,1.0,1.0,71,0.00,,,0.00,489,Wunderground v.1.15,2013-09-30 20:00:00,
2013-09-30 16:10:00,68.9,59.5,29.99,South,178,1.0,1.0,72,0.00,,,0.00,446,Wunderground v.1.15,2013-09-30 20:10:00,
2013-09-30 16:15:00,68.7,59.3,29.99,SSE,168,1.0,1.0,72,0.00,,,0.00,425,Wunderground v.1.15,2013-09-30 20:15:00,
2013-09-30 16:20:00,68.6,59.6,29.99,SSW,213,1.0,1.0,73,0.00,,,0.00,410,Wunderground v.1.15,2013-09-30 20:20:00,
2013-09-30 16:30:00,68.3,59.3,29.99,SW,220,1.0,1.0,73,0.00,,,0.00,123,Wunderground v.1.15,2013-09-30 20:30:00,
2013-09-30 16:40:00,67.7,59.1,29.99,SSW,207,1.0,1.0,74,0.00,,,0.00,120,Wunderground v.1.15,2013-09-30 20:40:00,
2013-09-30 16:50:00,67.0,58.8,29.99,South,184,1.0,1.0,75,0.00,,,0.00,63,Wunderground v.1.15,2013-09-30 20:50:00,
2013-09-30 16:55:00,66.7,58.9,29.99,South,180,1.0,1.0,76,0.00,,,0.00,76,Wunderground v.1.15,2013-09-30 20:55:00,
2013-09-30 17:05:00,66.2,58.8,29.99,SSW,200,1.0,2.0,77,0.00,,,0.00,51,Wunderground v.1.15,2013-09-30 21:05:00,
2013-09-30 17:10:00,66.0,58.9,29.99,SW,229,1.0,1.0,78,0.00,,,0.00,54,Wunderground v.1.15,2013-09-30 21:10:00,
2013-09-30 17:15:00,65.8,58.7,29.99,SSW,193,1.0,1.0,78,0.00,,,0.00,49,Wunderground v.1.15,2013-09-30 21:15:00,
2013-09-30 17:25:00,65.5,58.5,29.99,South,188,0.0,1.0,78,0.00,,,0.00,46,Wunderground v.1.15,2013-09-30 21:25:00,
2013-09-30 17:30:00,65.4,58.0,29.99,SW,215,0.0,1.0,77,0.00,,,0.00,49,Wunderground v.1.15,2013-09-30 21:30:00,
2013-09-30 17:35:00,65.2,58.2,29.99,SW,227,0.0,1.0,78,0.00,,,0.00,35,Wunderground v.1.15,2013-09-30 21:35:00,
2013-09-30 17:45:00,64.8,57.4,29.99,South,186,1.0,3.0,77,0.00,,,0.00,28,Wunderground v.1.15,2013-09-30 21:45:00,
2013-09-30 17:55:00,64.4,57.4,29.99,South,189,0.0,0.0,78,0.00,,,0.00,30,Wunderground v.1.15,2013-09-30 21:55:00,
2013-09-30 18:00:00,64.3,57.3,30.00,South,184,0.0,0.0,78,0.00,,,0.00,19,Wunderground v.1.15,2013-09-30 22:00:00,
2013-09-30 18:10:00,64.0,57.0,29.99,SSE,165,0.0,0.0,78,0.00,,,0.00,11,Wunderground v.1.15,2013-09-30 22:10:00,
2013-09-30 18:20:00,63.8,57.2,29.99,SSE,167,0.0,0.0,79,0.00,,,0.00,7,Wunderground v.1.15,2013-09-30 22:20:00,
2013-09-30 18:30:00,63.4,57.1,29.99,South,179,0.0,0.0,80,0.00,,,0.00,0,Wunderground v.1.15,2013-09-30 22:30:00,
2013-09-30 18:40:00,63.0,57.1,29.99,South,183,0.0,0.0,81,0.00,,,0.00,0,Wunderground v.1.15,2013-09-30 22:40:00,
2013-09-30 18:50:00,62.7,57.1,29.99,SW,223,0.0,0.0,82,0.00,,,0.00,0,Wunderground v.1.15,2013-09-30 22:50:00,
2013-09-30 18:55:00,62.5,56.9,29.99,SW,221,0.0,0.0,82,0.00,,,0.00,0,Wunderground v.1.15,2013-09-30 22:55:00,
2013-09-30 19:05:00,62.3,57.1,29.99,SW,221,0.0,0.0,83,0.00,,,0.00,0,Wunderground v.1.15,2013-09-30 23:05:00,
2013-09-30 19:10:00,62.2,57.0,29.99,SW,221,0.0,0.0,83,0.00,,,0.00,0,Wunderground v.1.15,2013-09-30 23:10:00,
2013-09-30 19:20:00,61.9,57.0,29.99,SW,221,0.0,0.0,84,0.00,,,0.00,0,Wunderground v.1.15,2013-09-30 23:20:00,
2013-09-30 19:30:00,61.7,56.8,29.99,SW,221,0.0,0.0,84,0.00,,,0.00,0,Wunderground v.1.15,2013-09-30 23:30:00,
2013-09-30 19:35:00,61.5,56.9,29.99,SW,216,0.0,0.0,85,0.00,,,0.00,0,Wunderground v.1.15,2013-09-30 23:35:00,
2013-09-30 19:40:00,61.4,56.8,29.99,SW,216,0.0,0.0,85,0.00,,,0.00,0,Wunderground v.1.15,2013-09-30 23:40:00,
2013-09-30 19:50:00,61.1,56.6,29.99,SW,216,0.0,0.0,85,0.00,,,0.00,0,Wunderground v.1.15,2013-09-30 23:50:00,
2013-09-30 19:55:00,60.9,56.7,29.99,SW,216,0.0,0.0,86,0.00,,,0.00,0,Wunderground v.1.15,2013-09-30 23:55:00,
2013-09-30 20:05:00,60.7,56.5,29.99,SW,216,0.0,0.0,86,0.00,,,0.00,0,Wunderground v.1.15,2013-10-01 00:05:00,
2013-09-30 20:15:00,60.4,56.2,29.99,SW,216,0.0,0.0,86,0.00,,,0.00,0,Wunderground v.1.15,2013-10-01 00:15:00,
2013-09-30 20:20:00,60.3,56.4,29.99,SW,216,0.0,0.0,87,0.00,,,0.00,0,Wunderground v.1.15,2013-10-01 00:20:00,
2013-09-30 20:25:00,60.2,56.3,30.00,SW,216,0.0,0.0,87,0.00,,,0.00,0,Wunderground v.1.15,2013-10-01 00:25:00,
2013-09-30 20:30:00,60.1,56.2,30.00,SW,216,0.0,0.0,87,0.00,,,0.00,0,Wunderground v.1.15,2013-10-01 00:30:00,
2013-09-30 20:35:00,60.0,56.1,30.00,SW,216,0.0,0.0,87,0.00,,,0.00,0,Wunderground v.1.15,2013-10-01 00:35:00,
2013-09-30 20:40:00,59.8,55.9,30.00,SW,216,0.0,0.0,87,0.00,,,0.00,0,Wunderground v.1.15,2013-10-01 00:40:00,
2013-09-30 20:45:00,59.6,55.7,30.00,SW,216,0.0,0.0,87,0.00,,,0.00,0,Wunderground v.1.15,2013-10-01 00:45:00,
2013-09-30 20:55:00,59.4,55.5,30.00,SW,216,0.0,0.0,87,0.00,,,0.00,0,Wunderground v.1.15,2013-10-01 00:55:00,
2013-09-30 21:00:00,59.2,55.3,30.00,SW,216,0.0,0.0,87,0.00,,,0.00,0,Wunderground v.1.15,2013-10-01 01:00:00,
2013-09-30 21:05:00,59.0,55.4,30.00,SW,216,0.0,0.0,88,0.00,,,0.00,0,Wunderground v.1.15,2013-10-01 01:05:00,
2013-09-30 21:15:00,58.7,55.2,30.00,SW,216,0.0,0.0,88,0.00,,,0.00,0,Wunderground v.1.15,2013-10-01 01:15:00,
2013-09-30 21:20:00,58.5,55.0,30.00,SW,216,0.0,0.0,88,0.00,,,0.00,0,Wunderground v.1.15,2013-10-01 01:20:00,
2013-09-30 21:25:00,58.3,55.1,30.00,SW,216,0.0,0.0,89,0.00,,,0.00,0,Wunderground v.1.15,2013-10-01 01:25:00,
2013-09-30 21:35:00,58.0,54.8,30.00,SW,216,0.0,0.0,89,0.00,,,0.00,0,Wunderground v.1.15,2013-10-01 01:35:00,
2013-09-30 21:40:00,57.9,54.7,30.00,SW,215,0.0,0.0,89,0.00,,,0.00,0,Wunderground v.1.15,2013-10-01 01:40:00,
2013-09-30 21:50:00,57.7,54.8,30.00,SW,215,0.0,0.0,90,0.00,,,0.00,0,Wunderground v.1.15,2013-10-01 01:50:00,
2013-09-30 22:00:00,57.6,54.7,30.00,SW,215,0.0,0.0,90,0.00,,,0.00,0,Wunderground v.1.15,2013-10-01 02:00:00,
2013-09-30 22:10:00,57.3,54.4,30.00,SW,215,0.0,0.0,90,0.00,,,0.00,0,Wunderground v.1.15,2013-10-01 02:10:00,
2013-09-30 22:20:00,57.2,54.6,30.00,SW,215,0.0,0.0,91,0.00,,,0.00,0,Wunderground v.1.15,2013-10-01 02:20:00,
2013-09-30 22:25:00,57.2,54.6,30.00,SW,215,0.0,0.0,91,0.00,,,0.00,0,Wunderground v.1.15,2013-10-01 02:25:00,
2013-09-30 22:35:00,57.3,55.0,30.00,SW,215,0.0,0.0,92,0.00,,,0.00,0,Wunderground v.1.15,2013-10-01 02:35:00,
2013-09-30 22:40:00,57.4,55.1,30.00,SW,215,0.0,0.0,92,0.00,,,0.00,0,Wunderground v.1.15,2013-10-01 02:40:00,
2013-09-30 22:50:00,57.6,55.3,30.00,SW,215,0.0,0.0,92,0.00,,,0.00,0,Wunderground v.1.15,2013-10-01 02:50:00,
2013-09-30 22:55:00,57.7,55.4,30.00,SW,221,0.0,0.0,92,0.00,,,0.00,0,Wunderground v.1.15,2013-10-01 02:55:00,
2013-09-30 23:00:00,57.8,55.5,30.00,SW,221,0.0,0.0,92,0.00,,,0.00,0,Wunderground v.1.15,2013-10-01 03:00:00,
2013-09-30 23:05:00,57.8,55.5,30.00,West,267,0.0,0.0,92,0.00,,,0.00,0,Wunderground v.1.15,2013-10-01 03:05:00,
2013-09-30 23:15:00,57.9,55.6,29.99,West,280,0.0,0.0,92,0.00,,,0.00,0,Wunderground v.1.15,2013-10-01 03:15:00,
2013-09-30 23:25:00,58.0,55.7,29.99,West,280,0.0,0.0,92,0.00,,,0.00,0,Wunderground v.1.15,2013-10-01 03:25:00,
2013-09-30 23:30:00,58.0,55.7,29.99,West,280,0.0,0.0,92,0.00,,,0.00,0,Wunderground v.1.15,2013-10-01 03:30:00,
2013-09-30 23:35:00,58.0,55.7,29.99,West,280,0.0,0.0,92,0.00,,,0.00,0,Wunderground v.1.15,2013-10-01 03:35:00,
2013-09-30 23:40:00,58.0,55.7,29.99,WNW,302,0.0,0.0,92,0.00,,,0.00,0,Wunderground v.1.15,2013-10-01 03:40:00,
2013-09-30 23:50:00,58.0,55.7,29.99,WNW,302,0.0,0.0,92,0.00,,,0.00,0,Wunderground v.1.15,2013-10-01 03:50:00,
2013-09-30 23:55:00,58.0,55.7,29.99,WNW,301,0.0,1.0,92,0.00,,,0.00,0,Wunderground v.1.15,2013-10-01 03:55:00,